Location: Borojevi?i
(45.0486°N, 16.2297°E)
Time: 17:20:40
(UTC+00:00)

Cosmos 1805 Rocket - Pass Details

Date: 08 August 2020
Orbit: 605 x 631 km, 82.5° (Epoch: 25 September)

Event Time Altitude Azimuth Distance (km) Brightness Sun altitude
Rises 18:53:09 0° 171° (S) 2,887 6.6 -7.3°
Reaches altitude 10° 18:55:25 10° 165° (SSE) 1,990 5.7 -7.7°
Maximum altitude 18:59:38 45° 93° (E) 854 3.9 -8.3°
Drops below altitude 10° 19:03:53 10° 21° (NNE) 2,017 6.4 -8.9°
Sets 19:06:12 0° 15° (NNE) 2,932 7.3 -9.3°
